Regional Weather Roundup
Issued by NWS

Home | Current Version | Previous Version | Graphics & Text | Print | Product List | Glossary Off
Versions: 1 2 3 4 5 6 7 8 9 10 11 12 13 14 15 16 17 18 19 20 21 22 23 24 25 26 27 28 29 30 31 32 33 34 35 36 37 38 39 40 41 42 43 44 45 46 47 48 49 50

000
ASUS43 KMKX 210300
RWRWI

WISCONSIN REGIONAL WEATHER ROUNDUP
NATIONAL WEATHER SERVICE MILWAUKEE/SULLIVAN WI
1000 PM CDT WED SEP 20 2017

NOTE: "FAIR" INDICATES FEW OR NO CLOUDS BELOW 12,000 FEET WITH NO
SIGNIFICANT WEATHER AND/OR OBSTRUCTIONS TO VISIBILITY.

WIZ001-002-006>008-014>016-023>028-210400-
NORTHWEST WISCONSIN

CITY           SKY/WX    TMP DP  RH WIND       PRES   REMARKS
SUPERIOR ARPT  CLEAR     49  47  92 S6        29.90R
ASHLAND        CLEAR     51  50  96 SW3       29.92R
HAYWARD        CLEAR     51  50  96 CALM      29.93R
SIREN          CLEAR     52  49  90 CALM      29.91R
CUMBERLAND     CLEAR     55  52  88 CALM      29.92R
RICE LAKE      CLEAR     53  52  95 CALM      29.93R FOG
CHETEK         CLEAR     56  55  97 N3        29.92R
LADYSMITH      CLEAR     57  55  92 CALM      29.93R
EAU CLAIRE     NOT AVBL
MENOMONIE      CLEAR     61  56  84 CALM      29.90R
NEW RICHMOND   NOT AVBL
OSCEOLA        CLEAR     53  53 100 CALM      29.94R
$$

WIZ003>005-009-010-017-018-210400-
NORTH CENTRAL WISCONSIN

CITY           SKY/WX    TMP DP  RH WIND       PRES   REMARKS
MANITOWISH WTR FOG       55  55 100 CALM      29.92R VSB 1/4
ARBOR VITAE    FOG       63  62  97 NW7       29.90F VSB 1/2
WOODRUFF       FOG       63  62  97 NW7       29.90F VSB 1/2
RHINELANDER    FOG       62  62 100 CALM      29.91R VSB 1/4
EAGLE RIVER    FOG       63  63 100 CALM      29.89F VSB 1/4
LAND O LAKES   FOG       63  63 100 CALM      29.91F VSB<1/4
PHILLIPS       FOG       55  55 100 CALM      29.91R VSB 1
TOMAHAWK         N/A     61  60  96 CALM      29.90F FOG
MEDFORD        PTCLDY    60  59  96 CALM      29.89F
MERRILL        FOG       63  63 100 SE5       29.89  VSB 1/2
$$

WIZ029-030-035-036-043>047-210400-
CENTRAL WISCONSIN

CITY           SKY/WX    TMP DP  RH WIND       PRES   REMARKS
WAUSAU         CLOUDY    66  65  96 CALM      29.89R
MOSINEE        CLEAR     66  66 100 E3        29.92R
MARSHFIELD     CLOUDY    66  61  84 NW3       29.90R
STEVENS POINT  CLOUDY    66  66 100 CALM      29.89R FOG
WAUPACA        CLOUDY    70  69  97 NE6       29.90R
WAUTOMA        CLOUDY    71  70  96 CALM      29.90R
WISC RAPIDS    CLOUDY    67  67 100 CALM      29.90R
CAMP DOUGLAS   NOT AVBL
$$

WIZ011>013-019>022-031-037>040-048>050-210400-
NORTHEAST WISCONSIN

CITY           SKY/WX    TMP DP  RH WIND       PRES   REMARKS
ANTIGO         FOG       64  64 100 E6        29.90R VSB<1/4
SHAWANO        CLOUDY    70  67  90 CALM      29.89R
OCONTO         CLOUDY    70  68  94 W3        29.86F
STURGEON BAY   CLOUDY    70  68  93 S6        29.89F
GREEN BAY      LGT RAIN  72  69  90 SW12      29.87S
MANITOWOC      LGT RAIN  72  69  90 W9        29.92R
APPLETON       TSTM      68  68 100 SE14      29.88S
CLINTONVILLE   NOT AVBL
OSHKOSH        TSTM      69  68  96 E10       29.94R FOG
$$

WIZ032>034-041-042-053>061-210400-
SOUTHWEST WISCONSIN

CITY           SKY/WX    TMP DP  RH WIND       PRES   REMARKS
LA CROSSE      NOT AVBL
SPARTA         CLOUDY    65  65  99 CALM      29.90R
VIROQUA        CLOUDY    68  67  98 N5        29.90R
BOSCOBEL       MOCLDY    73  71  93 CALM      29.89R
PRAIRIE DU CHI CLOUDY    73  68  83 E3        29.88R
PLATTEVILLE    CLOUDY    73  72  98 SW7       29.88R
$$

WIZ056-057-062-063-064-067-068-210400-
SOUTH CENTRAL WISCONSIN

CITY           SKY/WX    TMP DP  RH WIND       PRES   REMARKS
REEDSBURG      CLOUDY    70  70 100 CALM      29.88R
BARABOO/DELLS  CLOUDY    71  68  91 NW5       29.88R
LONE ROCK      NOT AVBL
MINERAL POINT  CLOUDY    75  73  94 W5        29.89R
MADISON        CLOUDY    73  70  90 W5        29.90R THUNDER
MIDDLETON      CLOUDY    74  72  91 CALM      29.88R
WATERTOWN      CLOUDY    80  68  66 W10G16    29.89R HX  83
MONROE         CLOUDY    79  68  69 SW10      29.88R HX  81
JANESVILLE     CLOUDY    82  64  54 S12       29.85R HX  84
$$

WIZ051-052-058>065-066-070>072-210400-
SOUTHEAST WISCONSIN

CITY           SKY/WX    TMP DP  RH WIND       PRES   REMARKS
MILWAUKEE      CLOUDY    77  69  76 S6        29.88R
WAUKESHA       NOT AVBL
MILWAUKEE/TIMM CLOUDY    77  64  65 SE5       29.87R
RACINE         CLOUDY    73  68  84 S3        29.90R
BURLINGTON     CLOUDY    71  67  87 CALM      29.88R
KENOSHA        CLOUDY    77  67  71 SW5       29.90R
FOND DU LAC    TSTM      68  66  93 N10       29.96R FOG
SHEBOYGAN      CLOUDY    73  70  90 NW10      29.96R
WEST BEND        N/A     72  68  88 SW5       29.87R
JUNEAU         TSTM      71  69  91 N14       29.92R
$$

LSZ147-162-210400-
LAKE SUPERIOR

STATION/POSITION TIME  TEMP    WIND        PRES    WAVE
                       AIR SEA DIR/SP/G            HT/PER
                 (UTC) (F)     (DEG/KT/KT) (MB)    (FT/S)
W MID LAKE BUOY  0150   60 55  270/  8/ 10 1010.6R   2/ 5
DEVILS ISLAND    0200   64     290/ 12/ 13 1011.5R
SAXON HARBOR     0230   60     190/  4/  5 1012.2R
$$

LMZ867-665-643>646-210400-
LAKE MICHIGAN

STATION/POSITION TIME  TEMP    WIND        PRES    WAVE
                       AIR SEA DIR/SP/G            HT/PER
                 (UTC) (F)     (DEG/KT/KT) (MB)    (FT/S)
S GREEN BAY BUOY 0230   69 66  190/  4/  4 1010.8R
N MID LAKE BUOY  0150   68 65  130/ 10/ 12 1010.8F   3/ 5
NORTHPORT PIER   0240   72     160/  8/ 15 1010.5S
KEWAUNEE LAKESHO 0230   71     210/  5/  8 1011.0R
SHEBOYGAN LAKESH 0200   67     160/  6/  7 1010.5R
PORT WASHINGTON  0240   70     190/  4/  9 1012.2R
ATWATER BUOY     0109   69 63  150/  6/  8 1010.9R
MILWAUKEE LAKESH 0230   70     160/  3/  4   N/A
S MID LAKE BUOY  0150   73 69  150/ 12/ 14 1011.1R   1/ 3
KENOSHA   LAKESH 0200   73     170/  8/ 10 1010.8
$$

TC  - TEMPERATURE IN CELSIUS
VSB - VISIBILITY IN STATUTE MILES
WCI - WIND CHILL INDEX
HX  - HEAT INDEX





USA.gov is the U.S. government's official web portal to all federal, state and local government web resources and services.